Regional Weather Roundup
Issued by NWS Huntsville, AL

Home | Current Version | Previous Version | Text Only | Print | Product List | Glossary On
Versions: 1 2 3 4 5 6 7 8 9 10 11 12 13 14 15 16 17 18 19 20 21 22 23 24 25 26 27 28 29 30 31 32 33 34 35 36 37 38 39 40 41 42 43 44 45 46 47 48 49 50
000
ASUS44 KHUN 051610
RWRHUN

WEATHER ROUNDUP FOR THE TENNESSEE VALLEY
NATIONAL WEATHER SERVICE HUNTSVILLE AL
1100 AM CDT SAT SEP 05 2015

ALZ001>004-051700-
NORTHWEST ALABAMA

CITY           SKY/WX    TMP DP  RH WIND       PRES   REMARKS
BANKHEAD NF      N/A     88  76  67 CALM        N/A  HX  98
SHOALS AIRPORT SUNNY     87  70  56 NE5       30.11R HX  92
SHOALS TVA RES   N/A     84 N/A N/A MISG        N/A
$$

ALZ005>007-016-051700-
NORTH CENTRAL ALABAMA

CITY           SKY/WX    TMP DP  RH WIND       PRES   REMARKS
DECATUR AP     SUNNY     84  73  69 E7        30.11S HX  90
HUNTSVILLE AP  SUNNY     86  72  62 SE7       30.11R HX  92
HUN NWS/UAH      N/A     85  69  58 E5          N/A
MERIDIANVILLE  SUNNY     82  66  57 SE7       30.13R
REDSTONE ARSN  SUNNY     83  73  69 S5        30.11R
VINEMONT AP    FAIR      82  72  69 SE5       30.14R
$$

ALZ008>010-051700-
NORTHEAST ALABAMA

CITY           SKY/WX    TMP DP  RH WIND       PRES   REMARKS
ALBERTVILLE    SUNNY     81  77  89 E5        30.13S
FORT PAYNE     SUNNY     81  63  54 E7        30.14S
SCOTTSBORO AP  SUNNY     84  68  58 E5        30.14S
SCOTTSBORO HCN   N/A     82 N/A N/A MISG        N/A
VALLEY HEAD      N/A     81 N/A N/A MISG        N/A
$$

TNZ076-096-097-051700-
SOUTHEASTERN MIDDLE TENNESSEE

CITY           SKY/WX    TMP DP  RH WIND       PRES   REMARKS
TULLAHOMA      SUNNY     82  68  61 SE8       30.16S
WINCHESTER     SUNNY     82  70  65 SE9       30.14S
$$

...SURROUNDING SITES...

CITY           SKY/WX    TMP DP  RH WIND       PRES   REMARKS
ATLANTA        MOSUNNY   81  68  64 E9        30.16S
ANNISTON       SUNNY     85  71  63 E7        30.12S HX  90
BIRMINGHAM     SUNNY     86  72  62 E7        30.12S HX  92
CHATTANOOGA    SUNNY     84  67  56 CALM      30.15S
DALTON         SUNNY     82  68  61 SE8       30.15S
GADSDEN        SUNNY     82  70  65 E9        30.11S
GOLDEN TRNGL   SUNNY     90  70  51 CALM      30.07R HX  95
HALEYVILLE     FAIR      88  71  56 CALM      30.14R HX  93
JACKSON TN     SUNNY     88  72  58 CALM      30.10S HX  94
MEMPHIS        SUNNY     91  70  49 CALM      30.08S HX  96
NASHVILLE      MOSUNNY   88  66  48 S3        30.13R HX  90
OXFORD MS      FAIR      86  70  58 CALM      30.09F HX  90
ROME           SUNNY     84  67  56 SE9       30.13S
SAVANNAH       SUNNY     88  32  13 CALM      30.10S
TUPELO         SUNNY     89  68  49 CALM      30.08R HX  93
TUSCALOOSA     SUNNY     90  72  55 E5        30.07S HX  97
$$

...GULF COAST WEATHER...

CITY           SKY/WX    TMP DP  RH WIND       PRES   REMARKS
GULFPORT       SUNNY     90  73  57 N5        30.04R HX  98
PASCAGOULA     SUNNY     91  75  59 NE7       30.03S HX 101
MOBILE         MOSUNNY   91  73  55 VRB5      30.05S HX  99
GULF SHORES    SUNNY     89  75  63 N5        30.03S HX  98
PENSACOLA      MOSUNNY   91  74  57 VRB6      30.02S HX 100
DESTIN         SUNNY     89  76  65 VRB5      30.03R HX 100
PANAMA CITY    MOSUNNY   89  74  62 CALM      30.02S HX  98
APPALACHICOLA  MOSUNNY   89  74  60 N5        30.02F HX  98
$$




USA.gov is the U.S. government's official web portal to all federal, state and local government web resources and services.